Tracking 20083 objects as of 12-Dec-2019
HD Live streaming from Space Station
objects crossing your sky now

FENGYUN 1C DEB

Track FENGYUN 1C DEB now!
10-day predictions


NORAD ID: 31325
Int'l Code: 1999-025BQD
Perigee: 829.3 km
Apogee: 952.0 km
Inclination: 99.1 °
Period: 102.6 minutes
Semi major axis: 7261 km
RCS: 0.0037 m2 (small)
Launch date: May 10, 1999
Source: People's Republic of China (PRC)
Launch site: Taiyaun Space Center, China (TSC)

Note: This is SATELLITE DEBRIS
aabbcc
Your satellite tracking list
Your tracking list is empty




NASA's NSSDC Master Catalog

Two Line Element Set (TLE):
1 31325U 99025BQD 19338.47081357  .00000888  00000-0  58276-3 0  9993
2 31325  99.0860  42.9165 0084451 247.3623 111.8594 14.02974870645639
Source of the keplerian elements: AFSPC